This demonstration page uses our WeatherBlox Daily Observations layout. Learn more.

Left ArrowRight Arrow

Hourly Observations for September 29, 2022

Temp ( °F °C ) Dew Point ( °F °C ) Humidity (%) Winds ( mph kmh ) Pressure ( in mb ) Visibility ( mi km ) Precip ( " mm )
12:53 am 00:53 Clear 47 8.3 42 5.6 83 83 N 3 6 30.46 1032 10 16 0.00 0.00
1:53 am 01:53 Clear 42 5.6 40 4.4 92 92 Calm 30.46 1032 10 16 0.00 0.00
2:53 am 02:53 Clear 48 8.9 43 6.1 83 83 NNE 5 7 30.45 1031 10 16 0.00 0.00
3:53 am 03:53 Clear 48 8.9 43 6.1 83 83 VRB 3 6 30.46 1031 10 16 0.00 0.00
4:53 am 04:53 Clear 44 6.7 42 5.6 93 93 Calm 30.46 1031 10 16 0.00 0.00
5:53 am 05:53 Clear 43 6.1 41 5 93 93 Calm 30.46 1032 10 16 0.00 0.00
6:53 am 06:53 Clear 41 5 39 3.9 93 93 Calm 30.46 1031 10 16 0.00 0.00
7:53 am 07:53 Sunny 42 5.6 40 4.4 92 92 WNW 3 6 30.47 1032 10 16 0.00 0.00
8:53 am 08:53 Sunny 50 10 45 7.2 83 83 ENE 3 6 30.48 1032 10 16 0.00 0.00
9:53 am 09:53 Sunny 54 12.2 48 8.9 80 80 E 7 11 30.48 1032 10 16 0.00 0.00
10:53 am 10:53 Sunny 60 15.6 48 8.9 64 64 NE 10 17 30.48 1032 10 16 0.00 0.00
11:53 am 11:53 Mostly Sunny 63 17.2 48 8.9 58 58 E 14 22 30.47 1032 10 16 0.00 0.00
12:53 pm 12:53 Cloudy 63 17.2 47 8.3 56 56 ENE 10 17 30.46 1032 10 16 0.00 0.00
1:53 pm 13:53 Cloudy 64 17.8 47 8.3 54 54 ENE 10 17 30.44 1031 10 16 0.00 0.00
2:53 pm 14:53 Partly Cloudy 66 18.9 47 8.3 50 50 ESE 9 15 30.40 1030 10 16 0.00 0.00
3:53 pm 15:53 Mostly Cloudy 64 17.8 46 7.8 52 52 ENE 8 13 30.38 1029 10 16 0.00 0.00
4:53 pm 16:53 Mostly Sunny 65 18.3 46 7.8 50 50 E 9 15 30.37 1028 10 16 0.00 0.00
5:53 pm 17:53 Mostly Sunny 66 18.9 46 7.8 48 48 ENE 10 17 30.36 1028 10 16 0.00 0.00
6:53 pm 18:53 Sunny 62 16.7 45 7.2 53 53 E 9 15 30.35 1028 10 16 0.00 0.00
7:53 pm 19:53 Clear 57 13.9 45 7.2 64 64 NE 5 7 30.34 1027 10 16 0.00 0.00
8:53 pm 20:53 Clear 56 13.3 45 7.2 66 66 ENE 7 11 30.34 1028 10 16 0.00 0.00
9:53 pm 21:53 Clear 54 12.2 44 6.7 69 69 E 7 11 30.35 1028 10 16 0.00 0.00
10:53 pm 22:53 Clear 51 10.6 44 6.7 77 77 E 5 7 30.35 1028 10 16 0.00 0.00
11:53 pm 23:53 Clear 49 9.4 43 6.1 80 80 E 5 7 30.35 1028 10 16 0.00 0.00

Powered by AerisWeather